TimeCST,TemperatureF,Dew PointF,Humidity,Sea Level PressureIn,VisibilityMPH,Wind Direction,Wind SpeedMPH,Gust SpeedMPH,PrecipitationIn,Events,Conditions,WindDirDegrees,DateUTC
12:15 AM,55.4,36.7,49,30.05,10.0,NW,6.9,-,N/A,,Clear,320,2014-01-21 06:15:00
12:35 AM,54.3,35.4,49,30.06,10.0,NNW,8.1,-,N/A,,Clear,330,2014-01-21 06:35:00
12:55 AM,53.6,33.6,47,30.07,10.0,NNW,6.9,-,N/A,,Clear,330,2014-01-21 06:55:00
1:15 AM,53.1,32.5,46,30.07,10.0,NNW,8.1,-,N/A,,Clear,330,2014-01-21 07:15:00
1:35 AM,52.7,31.3,44,30.08,10.0,NNW,9.2,-,N/A,,Clear,330,2014-01-21 07:35:00
1:55 AM,51.6,30.4,44,30.10,10.0,NNW,6.9,-,N/A,,Clear,330,2014-01-21 07:55:00
2:15 AM,51.3,28.0,41,30.11,10.0,NNW,11.5,16.1,N/A,,Clear,330,2014-01-21 08:15:00
2:35 AM,50.9,24.6,36,30.12,10.0,NNW,15.0,20.7,N/A,,Clear,330,2014-01-21 08:35:00
2:55 AM,50.2,23.5,35,30.13,10.0,NNW,8.1,-,N/A,,Clear,330,2014-01-21 08:55:00
3:15 AM,49.3,22.5,35,30.14,10.0,NNW,9.2,-,N/A,,Clear,340,2014-01-21 09:15:00
3:35 AM,47.8,21.7,36,30.15,10.0,NW,4.6,-,N/A,,Clear,310,2014-01-21 09:35:00
3:55 AM,47.8,22.1,36,30.15,10.0,NW,6.9,-,N/A,,Clear,320,2014-01-21 09:55:00
4:15 AM,47.1,21.2,36,30.15,10.0,NW,5.8,-,N/A,,Clear,320,2014-01-21 10:15:00
4:35 AM,45.7,20.7,37,30.15,10.0,WNW,4.6,-,N/A,,Clear,300,2014-01-21 10:35:00
4:55 AM,45.1,21.0,38,30.15,10.0,NW,5.8,-,N/A,,Clear,310,2014-01-21 10:55:00
5:15 AM,44.8,21.2,39,30.16,10.0,WNW,4.6,-,N/A,,Clear,300,2014-01-21 11:15:00
5:35 AM,44.4,21.6,40,30.16,10.0,NW,4.6,-,N/A,,Clear,310,2014-01-21 11:35:00
5:55 AM,44.2,21.4,40,30.17,10.0,NW,8.1,-,N/A,,Clear,310,2014-01-21 11:55:00
6:15 AM,43.3,21.2,41,30.17,10.0,NW,4.6,-,N/A,,Clear,310,2014-01-21 12:15:00
6:35 AM,43.5,20.8,41,30.18,10.0,NW,9.2,-,N/A,,Clear,310,2014-01-21 12:35:00
6:55 AM,44.8,17.6,34,30.19,10.0,NNW,13.8,23.0,N/A,,Clear,330,2014-01-21 12:55:00
7:15 AM,44.6,16.7,33,30.20,10.0,NW,9.2,-,N/A,,Clear,310,2014-01-21 13:15:00
7:35 AM,44.6,16.2,32,30.21,10.0,NNW,11.5,16.1,N/A,,Clear,330,2014-01-21 13:35:00
7:55 AM,45.0,16.5,32,30.22,10.0,NW,9.2,-,N/A,,Clear,320,2014-01-21 13:55:00
8:15 AM,45.5,16.5,31,30.24,10.0,NNW,12.7,20.7,N/A,,Clear,330,2014-01-21 14:15:00
8:35 AM,46.0,16.3,30,30.25,10.0,NNW,15.0,23.0,N/A,,Clear,330,2014-01-21 14:35:00
8:55 AM,46.4,16.3,30,30.26,10.0,NNW,15.0,23.0,N/A,,Clear,330,2014-01-21 14:55:00
9:15 AM,46.8,16.3,30,30.28,10.0,NNW,10.4,20.7,N/A,,Clear,330,2014-01-21 15:15:00
9:35 AM,46.9,15.4,28,30.29,10.0,North,17.3,23.0,N/A,,Clear,350,2014-01-21 15:35:00
9:55 AM,47.1,12.7,25,30.30,10.0,NNW,17.3,29.9,N/A,,Clear,330,2014-01-21 15:55:00
10:15 AM,46.9,13.3,26,30.31,10.0,NNW,11.5,21.9,N/A,,Clear,330,2014-01-21 16:15:00
10:35 AM,47.5,13.1,25,30.31,10.0,NW,13.8,23.0,N/A,,Clear,320,2014-01-21 16:35:00
10:55 AM,47.5,12.7,25,30.31,10.0,NNW,13.8,23.0,N/A,,Clear,340,2014-01-21 16:55:00
11:15 AM,48.6,13.1,24,30.31,10.0,NNW,13.8,20.7,N/A,,Clear,340,2014-01-21 17:15:00
11:35 AM,48.4,11.7,23,30.30,10.0,North,16.1,20.7,N/A,,Clear,350,2014-01-21 17:35:00
11:55 AM,48.6,12.0,23,30.29,10.0,North,12.7,19.6,N/A,,Clear,350,2014-01-21 17:55:00
12:15 PM,48.7,10.8,22,30.28,10.0,NNW,17.3,21.9,N/A,,Clear,330,2014-01-21 18:15:00
12:35 PM,49.1,9.9,21,30.28,10.0,NNW,15.0,20.7,N/A,,Clear,330,2014-01-21 18:35:00
12:55 PM,49.3,6.3,17,30.27,10.0,North,12.7,24.2,N/A,,Clear,360,2014-01-21 18:55:00
1:15 PM,49.6,6.3,17,30.26,10.0,North,12.7,20.7,N/A,,Clear,350,2014-01-21 19:15:00
1:35 PM,49.3,6.8,18,30.25,10.0,North,12.7,19.6,N/A,,Clear,10,2014-01-21 19:35:00
1:55 PM,49.5,11.1,21,30.26,10.0,North,12.7,19.6,N/A,,Clear,350,2014-01-21 19:55:00
2:15 PM,49.5,12.6,23,30.26,10.0,WNW,9.2,-,N/A,,Clear,300,2014-01-21 20:15:00
2:35 PM,49.1,13.3,24,30.24,10.0,WNW,5.8,16.1,N/A,,Clear,300,2014-01-21 20:35:00
2:55 PM,48.7,12.6,23,30.25,10.0,NW,9.2,-,N/A,,Clear,320,2014-01-21 20:55:00
3:15 PM,48.9,14.5,25,30.24,10.0,WNW,9.2,16.1,N/A,,Clear,290,2014-01-21 21:15:00
3:35 PM,48.2,14.0,25,30.25,10.0,NW,9.2,-,N/A,,Clear,320,2014-01-21 21:35:00
3:55 PM,48.0,13.8,25,30.26,10.0,NW,10.4,-,N/A,,Clear,320,2014-01-21 21:55:00
4:15 PM,47.3,12.9,25,30.25,10.0,NNW,6.9,-,N/A,,Clear,330,2014-01-21 22:15:00
4:35 PM,46.8,12.0,25,30.25,10.0,NW,5.8,-,N/A,,Clear,320,2014-01-21 22:35:00
4:55 PM,46.0,9.0,22,30.25,10.0,North,6.9,-,N/A,,Clear,350,2014-01-21 22:55:00
5:15 PM,44.6,7.5,22,30.26,10.0,NNW,6.9,-,N/A,,Clear,340,2014-01-21 23:15:00
5:35 PM,42.4,9.9,26,30.27,10.0,NNW,3.5,-,N/A,,Clear,340,2014-01-21 23:35:00
5:55 PM,41.4,11.1,29,30.26,10.0,Calm,Calm,-,N/A,,Clear,0,2014-01-21 23:55:00
6:15 PM,39.9,13.8,35,30.26,10.0,Calm,Calm,-,N/A,,Clear,0,2014-01-22 00:15:00
6:35 PM,38.3,16.2,41,30.26,10.0,Calm,Calm,-,N/A,,Clear,0,2014-01-22 00:35:00
6:55 PM,36.9,15.6,42,30.26,10.0,Calm,Calm,-,N/A,,Clear,0,2014-01-22 00:55:00
7:15 PM,33.4,19.4,56,30.26,10.0,Calm,Calm,-,N/A,,Clear,0,2014-01-22 01:15:00
7:35 PM,34.0,19.6,56,30.25,10.0,Calm,Calm,-,N/A,,Clear,0,2014-01-22 01:35:00
7:55 PM,32.2,20.3,62,30.25,10.0,Calm,Calm,-,N/A,,Clear,0,2014-01-22 01:55:00
8:15 PM,32.0,19.8,61,30.25,10.0,Calm,Calm,-,N/A,,Clear,0,2014-01-22 02:15:00
8:35 PM,31.5,20.3,63,30.25,10.0,Calm,Calm,-,N/A,,Clear,0,2014-01-22 02:35:00
8:55 PM,30.2,19.9,66,30.25,10.0,Calm,Calm,-,N/A,,Clear,0,2014-01-22 02:55:00
9:15 PM,30.7,20.1,65,30.25,10.0,Calm,Calm,-,N/A,,Clear,0,2014-01-22 03:15:00
9:35 PM,30.7,19.2,62,30.25,10.0,Calm,Calm,-,N/A,,Clear,0,2014-01-22 03:35:00
9:55 PM,28.9,20.3,70,30.26,10.0,Calm,Calm,-,N/A,,Clear,0,2014-01-22 03:55:00
10:15 PM,29.3,19.6,67,30.26,10.0,Calm,Calm,-,N/A,,Clear,0,2014-01-22 04:15:00
10:35 PM,29.1,20.1,69,30.26,10.0,Calm,Calm,-,N/A,,Clear,0,2014-01-22 04:35:00
10:55 PM,28.9,19.9,69,30.25,10.0,Calm,Calm,-,N/A,,Clear,0,2014-01-22 04:55:00
11:15 PM,28.4,20.8,73,30.24,10.0,Calm,Calm,-,N/A,,Clear,0,2014-01-22 05:15:00
11:35 PM,27.9,21.2,76,30.24,10.0,Calm,Calm,-,N/A,,Clear,0,2014-01-22 05:35:00
11:55 PM,28.2,20.7,73,30.24,10.0,Calm,Calm,-,N/A,,Clear,0,2014-01-22 05:55:00